Location: Prague
(50.0830°N, 14.4670°E)
Time: 16:23:35
(UTC+01:00)

XW-2C - Visible Passes

Search period start: 03 December 2022 00:00
Search period end: 13 December 2022 00:00
Orbit: 493 x 512 km, 97.5° (Epoch: 03 December)

Date Brightness Start Highest point End Pass type
(mag) Time Alt. Az. Time Alt. Az. Time Alt. Az.
03 Dec ? 05:54:24 10° NNE 05:57:51 40° E 06:01:18 10° S visible
03 Dec ? 16:37:05 10° SE 16:40:29 36° ENE 16:43:52 10° N visible
03 Dec ? 18:11:34 10° SW 18:14:24 21° W 18:17:13 10° NW visible
04 Dec ? 05:35:51 10° NE 05:38:55 25° E 05:41:59 10° SSE visible
04 Dec ? 17:52:06 10° SSW 17:55:26 32° W 17:58:46 10° NNW visible
05 Dec ? 05:17:35 10° NE 05:19:55 16° E 05:22:15 10° SE visible
05 Dec ? 06:50:28 10° N 06:53:58 45° WNW 06:57:27 10° SW visible
05 Dec ? 17:32:54 10° S 17:36:30 52° W 17:40:07 10° NNW visible
06 Dec ? 05:00:27 10° E 05:00:52 10° E 05:01:15 10° E visible
06 Dec ? 06:31:30 10° N 06:35:09 75° WNW 06:38:47 10° SSW visible
06 Dec ? 17:13:56 10° SSE 17:17:37 87° WSW 17:21:19 10° NNW visible
07 Dec ? 06:12:37 10° NNE 06:16:16 65° ESE 06:19:54 10° S visible
07 Dec ? 16:55:10 10° SSE 16:58:46 56° ENE 17:02:22 10° N visible
07 Dec ? 18:31:03 10° WSW 18:32:55 13° W 18:34:47 10° WNW visible
08 Dec ? 05:53:53 10° NNE 05:57:20 39° E 06:00:47 10° SSE visible
08 Dec ? 16:36:35 10° SE 16:39:57 35° ENE 16:43:19 10° N visible
08 Dec ? 18:11:02 10° SW 18:13:51 21° W 18:16:41 10° NW visible
09 Dec ? 05:35:18 10° NE 05:38:21 24° E 05:41:23 10° SSE visible
09 Dec ? 07:08:57 10° N 07:12:09 29° WNW 07:15:21 10° SW visible
09 Dec ? 17:51:31 10° SSW 17:54:50 32° W 17:58:11 10° NNW visible
10 Dec ? 05:16:58 10° NE 05:19:17 16° E 05:21:36 10° SE visible
10 Dec ? 06:49:49 10° N 06:53:20 46° WNW 06:56:51 10° SW visible
10 Dec ? 17:32:16 10° S 17:35:51 53° W 17:39:28 10° NNW visible
11 Dec ? 06:30:49 10° N 06:34:28 77° WNW 06:38:07 10° SSW visible
11 Dec ? 17:13:15 10° SSE 17:16:55 89° W 17:20:36 10° NNW visible
12 Dec ? 06:11:54 10° NNE 06:15:33 64° ESE 06:19:10 10° S visible
12 Dec ? 16:54:26 10° SSE 16:58:00 55° ENE 17:01:37 10° N visible
12 Dec ? 18:30:14 10° WSW 18:32:09 14° W 18:34:04 10° WNW visible
